Weather in Zhilin

Russia / Belgorod Oblast     50°37′32″N   37°48′22″E
temp.,
°C
wind,
m/s
gust,
m/s
humid.,
%
clouds,
%
prec.,
mm/h
press.,
hPa
HPBL,
m
21 june, mon
mon2100:00+19ene5147990 0.0 1018266
03:00+18e513738 0.0 1017265
06:00+18e3107928 0.0 1018183
09:00+23ese5106323 0.0 1018362
12:00+27ese69511 0.0 1018751
15:00+28ese6105720 0.0 10171062
18:00+26ese510653 0.0 1017472
21:00+20e48814 0.0 1018111
22 june, tue
tue2200:00+19e411875 0.0 1018180
03:00+19e514754 0.0 1017254
06:00+19e5127995 0.0 1018254
09:00+24ese596783 0.0 1018390
12:00+28ese6856100 0.0 1018768
15:00+29ese585576 0.0 10181155
18:00+28e486879 0.0 1017398
21:00+24ene5147867 0.0 1018311
23 june, wed
wed2300:00+22ene4137835 0.0 1018251
03:00+20ene41476100 0.0 1018250
06:00+21ene51379100 0.0 1017271
09:00+25e5970100 0.0 1018428
12:00+28e565681 0.0 1018671
15:00+25se51166100 0.0 1019415
18:00+25e2567100 0.0 1018155
21:00+23ne357586 0.0 101897
24 june, thu
thu2400:00+22ne358079 0.0 101883
03:00+22ene397790 0.0 1018186
06:00+21e4118185 0.2 1018214
09:00+26e59647 0.2 1018395
12:00+28e486290 0.0 1018628
15:00+29ene4758100 0.0 1018707
18:00+29e486593 0.0 1018333
21:00+24ene33767 0.0 101842
25 june, fri
fri2500:00+22ene35796 0.0 101761
03:00+21ne36815 0.0 101783
06:00+21ene38834 0.0 1017178
09:00+26ene56695 0.0 1017494
12:00+30e45575 0.0 1016967
15:00+31e44525 0.0 10161613
18:00+30ese346215 0.0 1015505
21:00+25ese22720 0.0 101423